ASL665 LYPG-LYBE

Flight info

Callsign ASL665
Flight time 0h 38m
Altitude 33000
Route NIK DCT ELGEB
Aircraft A319/M-SDE3FGHIRWY/LB1

Departure

Time 2026-05-06 19:11
Airport Podgorica Airport / Podgorica Golubovci Airbase (LYPG)

Arrival

Time 2026-05-06 19:50
Airport Belgrade Nikola Tesla Airport (LYBE)
Time Latitude Longitude Altitude Speed Heading
2026-05-06 19:01 42.36798 19.24765 131 ft 0 kts 313°
2026-05-06 19:06 42.36788 19.24780 132 ft 4 kts 301°
2026-05-06 19:06 42.36779 19.24813 132 ft 4 kts 276°
2026-05-06 19:07 42.36776 19.24839 132 ft 2 kts
2026-05-06 19:07 42.36775 19.24839 132 ft 0 kts
2026-05-06 19:08 42.36778 19.24839 132 ft 3 kts
2026-05-06 19:09 42.36863 19.24847 132 ft 0 kts
2026-05-06 19:09 42.36886 19.24849 132 ft 7 kts
2026-05-06 19:09 42.36937 19.24869 131 ft 6 kts 22°
2026-05-06 19:09 42.36966 19.24893 132 ft 4 kts 39°
2026-05-06 19:10 42.36995 19.24948 132 ft 10 kts 67°
2026-05-06 19:10 42.36997 19.25052 132 ft 14 kts 104°
2026-05-06 19:10 42.36950 19.25201 132 ft 19 kts 114°
2026-05-06 19:10 42.36892 19.25281 132 ft 9 kts 153°
2026-05-06 19:11 42.36659 19.25267 132 ft 86 kts 189°
2026-05-06 19:11 42.35694 19.25167 259 ft 176 kts 184°
2026-05-06 19:11 42.34444 19.25011 1378 ft 181 kts 185°
2026-05-06 19:11 42.33131 19.24854 2425 ft 201 kts 184°
2026-05-06 19:12 42.31665 19.24711 3350 ft 221 kts 183°
2026-05-06 19:12 42.30070 19.24560 4196 ft 236 kts 184°
2026-05-06 19:12 42.28469 19.24035 5294 ft 240 kts 205°
2026-05-06 19:12 42.26951 19.23049 6406 ft 248 kts 199°
2026-05-06 19:13 42.25298 19.22435 7471 ft 242 kts 195°
2026-05-06 19:13 42.23616 19.21886 8360 ft 258 kts 195°
2026-05-06 19:13 42.21817 19.21296 9279 ft 272 kts 195°
2026-05-06 19:13 42.20002 19.20521 10331 ft 277 kts 209°
2026-05-06 19:14 42.18456 19.18886 11013 ft 296 kts 231°
2026-05-06 19:14 42.17521 19.16329 11503 ft 318 kts 257°
2026-05-06 19:14 42.17601 19.13313 12338 ft 331 kts 284°
2026-05-06 19:14 42.18743 19.10579 13248 ft 344 kts 311°
2026-05-06 19:15 42.20734 19.08816 14127 ft 357 kts 338°
2026-05-06 19:15 42.23219 19.08404 14956 ft 368 kts
2026-05-06 19:15 42.25738 19.09187 15807 ft 375 kts 17°
2026-05-06 19:15 42.28153 19.10580 16622 ft 381 kts 24°
2026-05-06 19:16 42.30517 19.12240 17435 ft 385 kts 26°
2026-05-06 19:16 42.32894 19.13948 18240 ft 389 kts 25°
2026-05-06 19:16 42.35328 19.15591 18951 ft 393 kts 22°
2026-05-06 19:16 42.37824 19.17139 19674 ft 396 kts 21°
2026-05-06 19:17 42.40366 19.18610 20392 ft 399 kts 20°
2026-05-06 19:17 42.42945 19.20038 21095 ft 402 kts 19°
2026-05-06 19:17 42.45548 19.21458 21797 ft 405 kts 19°
2026-05-06 19:17 42.48176 19.22892 22497 ft 409 kts 19°
2026-05-06 19:18 42.50822 19.24349 23172 ft 412 kts 19°
2026-05-06 19:18 42.53480 19.25836 23812 ft 416 kts 19°
2026-05-06 19:18 42.56163 19.27356 24365 ft 419 kts 19°
2026-05-06 19:18 42.58860 19.28892 24910 ft 422 kts 19°
2026-05-06 19:19 42.61574 19.30433 25459 ft 424 kts 19°
2026-05-06 19:19 42.64315 19.31982 25984 ft 427 kts 19°
2026-05-06 19:19 42.67014 19.33506 26483 ft 429 kts 19°
2026-05-06 19:19 42.69798 19.35083 26969 ft 432 kts 18°
2026-05-06 19:20 42.72574 19.36664 27419 ft 435 kts 18°
2026-05-06 19:20 42.75379 19.38265 27908 ft 438 kts 18°
2026-05-06 19:20 42.78197 19.39873 28371 ft 440 kts 18°
2026-05-06 19:20 42.81035 19.41493 28838 ft 443 kts 18°
2026-05-06 19:21 42.83885 19.43119 29348 ft 446 kts 18°
2026-05-06 19:21 42.86839 19.44333 29792 ft 441 kts
2026-05-06 19:21 42.89887 19.44746 30221 ft 441 kts 360°
2026-05-06 19:21 42.92951 19.45089 30598 ft 443 kts 359°
2026-05-06 19:22 42.96043 19.45428 30961 ft 446 kts 359°
2026-05-06 19:22 42.99153 19.45764 31329 ft 450 kts 359°
2026-05-06 19:22 43.02283 19.46104 31699 ft 453 kts 359°
2026-05-06 19:22 43.05386 19.46443 32122 ft 453 kts 359°
2026-05-06 19:23 43.08522 19.46790 32670 ft 451 kts 359°
2026-05-06 19:23 43.11653 19.47140 32985 ft 451 kts 359°
2026-05-06 19:23 43.14753 19.47487 33045 ft 442 kts 359°
2026-05-06 19:24 43.20764 19.48166 33041 ft 428 kts 358°
2026-05-06 19:24 43.26692 19.48813 33039 ft 427 kts 358°
2026-05-06 19:25 43.32607 19.49461 33034 ft 426 kts 358°
2026-05-06 19:25 43.38523 19.50110 33029 ft 426 kts 358°
2026-05-06 19:26 43.44396 19.50765 33027 ft 426 kts 358°
2026-05-06 19:26 43.50296 19.51435 33016 ft 426 kts 358°
2026-05-06 19:27 43.56198 19.52091 33000 ft 425 kts 358°
2026-05-06 19:27 43.62104 19.52748 32720 ft 427 kts 359°
2026-05-06 19:27 43.65068 19.53078 32457 ft 428 kts 359°
2026-05-06 19:28 43.68034 19.53411 32196 ft 429 kts 359°
2026-05-06 19:28 43.71017 19.53750 31927 ft 430 kts 359°
2026-05-06 19:28 43.74008 19.54092 31667 ft 431 kts 359°
2026-05-06 19:28 43.77002 19.54433 31431 ft 432 kts 359°
2026-05-06 19:29 43.80005 19.54771 31175 ft 433 kts 360°
2026-05-06 19:29 43.83003 19.55110 30924 ft 432 kts 360°
2026-05-06 19:29 43.86000 19.55450 30676 ft 431 kts
2026-05-06 19:29 43.88946 19.55783 30434 ft 430 kts
2026-05-06 19:30 43.91924 19.56119 30192 ft 429 kts
2026-05-06 19:30 43.94897 19.56455 29936 ft 428 kts
2026-05-06 19:30 43.97856 19.56795 29654 ft 426 kts
2026-05-06 19:30 44.00812 19.57135 29373 ft 425 kts
2026-05-06 19:31 44.03750 19.57470 29096 ft 423 kts
2026-05-06 19:31 44.06674 19.57800 28830 ft 421 kts
2026-05-06 19:31 44.12537 19.58456 27731 ft 426 kts
2026-05-06 19:32 44.15507 19.58791 27144 ft 430 kts
2026-05-06 19:32 44.18495 19.59133 26563 ft 432 kts
2026-05-06 19:32 44.21488 19.59480 26156 ft 429 kts
2026-05-06 19:32 44.24467 19.59826 25528 ft 431 kts
2026-05-06 19:33 44.27432 19.60168 25277 ft 424 kts
2026-05-06 19:33 44.30361 19.60505 24829 ft 422 kts
2026-05-06 19:33 44.33279 19.60840 24401 ft 419 kts
2026-05-06 19:33 44.36143 19.61170 23990 ft 417 kts
2026-05-06 19:34 44.39012 19.61501 23292 ft 411 kts
2026-05-06 19:34 44.41852 19.61829 22380 ft 407 kts
2026-05-06 19:34 44.44663 19.62153 21556 ft 403 kts
2026-05-06 19:34 44.47423 19.62470 20968 ft 392 kts
2026-05-06 19:35 44.50098 19.62779 20482 ft 380 kts
2026-05-06 19:35 44.52704 19.63082 19918 ft 371 kts
2026-05-06 19:35 44.55250 19.63379 19365 ft 364 kts
2026-05-06 19:35 44.57747 19.63672 18818 ft 357 kts
2026-05-06 19:36 44.60205 19.63958 18282 ft 352 kts
2026-05-06 19:36 44.62629 19.64237 17694 ft 346 kts
2026-05-06 19:36 44.65006 19.64514 17157 ft 340 kts
2026-05-06 19:36 44.67346 19.64787 16636 ft 334 kts
2026-05-06 19:37 44.69621 19.65050 16128 ft 331 kts
2026-05-06 19:37 44.71903 19.65315 15616 ft 328 kts
2026-05-06 19:37 44.74172 19.65578 15107 ft 326 kts
2026-05-06 19:37 44.75702 19.65755 14769 ft 328 kts
2026-05-06 19:38 44.78752 19.66110 14071 ft 336 kts
2026-05-06 19:38 44.81105 19.66385 13517 ft 341 kts
2026-05-06 19:38 44.83483 19.66661 12953 ft 344 kts
2026-05-06 19:38 44.85844 19.66936 12419 ft 346 kts
2026-05-06 19:39 44.88236 19.67216 12069 ft 341 kts
2026-05-06 19:39 44.90569 19.67492 11943 ft 330 kts
2026-05-06 19:39 44.92825 19.67759 11815 ft 321 kts
2026-05-06 19:39 44.95026 19.68016 11690 ft 314 kts
2026-05-06 19:40 44.96453 19.68224 11604 ft 310 kts
2026-05-06 19:40 44.98479 19.69142 11479 ft 304 kts 26°
2026-05-06 19:40 45.00860 19.71151 11316 ft 298 kts 32°
2026-05-06 19:40 45.02607 19.72675 11182 ft 293 kts 33°
2026-05-06 19:41 45.04037 19.74654 10812 ft 287 kts 61°
2026-05-06 19:41 45.04599 19.77291 10408 ft 280 kts 91°
2026-05-06 19:41 45.04446 19.79081 10141 ft 275 kts 110°
2026-05-06 19:41 45.03587 19.81452 9710 ft 270 kts 126°
2026-05-06 19:42 45.02589 19.83706 9256 ft 270 kts 125°
2026-05-06 19:42 45.01595 19.85958 8833 ft 269 kts 125°
2026-05-06 19:42 45.00609 19.88195 8417 ft 267 kts 124°
2026-05-06 19:42 44.99709 19.90242 8043 ft 266 kts 124°
2026-05-06 19:43 44.98736 19.92454 7639 ft 265 kts 124°
2026-05-06 19:43 44.97777 19.94656 7274 ft 259 kts 124°
2026-05-06 19:43 44.96849 19.96835 6661 ft 261 kts 124°
2026-05-06 19:43 44.95890 19.99038 5975 ft 265 kts 124°
2026-05-06 19:44 44.94915 20.01261 5269 ft 267 kts 124°
2026-05-06 19:44 44.93952 20.03456 4577 ft 267 kts 124°
2026-05-06 19:44 44.92998 20.05631 4087 ft 260 kts 124°
2026-05-06 19:44 44.92068 20.07749 3733 ft 248 kts 124°
2026-05-06 19:45 44.91181 20.09768 3415 ft 237 kts 124°
2026-05-06 19:45 44.90339 20.11680 3112 ft 219 kts 124°
2026-05-06 19:45 44.89575 20.13419 2846 ft 198 kts 125°
2026-05-06 19:45 44.88894 20.14967 2608 ft 175 kts 125°
2026-05-06 19:46 44.88312 20.16291 2401 ft 144 kts 126°
2026-05-06 19:46 44.87818 20.17409 2219 ft 125 kts 126°
2026-05-06 19:46 44.87380 20.18401 2055 ft 115 kts 126°
2026-05-06 19:46 44.86977 20.19354 1823 ft 111 kts 125°
2026-05-06 19:47 44.86591 20.20283 1569 ft 108 kts 124°
2026-05-06 19:47 44.86194 20.21185 1398 ft 108 kts 125°
2026-05-06 19:47 44.85767 20.22116 1393 ft 128 kts 127°
2026-05-06 19:47 44.85286 20.23160 1446 ft 115 kts 126°
2026-05-06 19:48 44.84884 20.24057 1231 ft 106 kts 124°
2026-05-06 19:48 44.84516 20.24915 957 ft 102 kts 122°
2026-05-06 19:48 44.84060 20.25913 811 ft 144 kts 123°
2026-05-06 19:48 44.83547 20.27090 699 ft 140 kts 122°
2026-05-06 19:49 44.83048 20.28220 534 ft 135 kts 125°
2026-05-06 19:49 44.82549 20.29333 360 ft 127 kts 122°
2026-05-06 19:49 44.82134 20.30258 305 ft 99 kts 122°
2026-05-06 19:49 44.81841 20.30916 308 ft 59 kts 122°
2026-05-06 19:50 44.81713 20.31212 306 ft 31 kts 124°
2026-05-06 19:50 44.81522 20.31410 306 ft 38 kts 150°